OneWeb SL0639

operational
NORAD ID: 55803 Int'l Des: 2023-029 Owner: ONEWEBN Country: UK Constellation: oneweb
LEOCIRCULARPOLARONEWEB_TYPE

OneWeb SL0639について

説明を読み込み中...

リアルタイム位置

3D地球を読み込み中...

次回通過

高度履歴

Altitude vs Time

uPlot chart will show altitude changes over time

軌道要素

1 55803U 23029H 25305.58154484 .00000041 00000-0 70910-4 0 9997
2 55803 87.9229 350.2707 0002876 112.6049 247.5388 13.19725296128889
Epoch: Nov 1, 2025 • Age: 19 hours

現在のステータス

高度 1198.1 km
速度 7.25 km/s
衛星直下点 -31.66°S, 8.83°W
打ち上げ日 Mar 9, 2023
運用期間 2.6 years
タイプ internet

技術仕様

分類 Payload
質量 148.00 kg
乾燥質量 140.00 kg
総質量 148.00 kg
長さ 1.30 m
直径 1.00 m
スパン 5.00 m
形状 Trapezoid+2 pan
製造者 ONEWUS
バスタイプ ARROW
フェーズステータス In Orbit
所有者/国 ONEWEBN/UK

大規模コンステレーション

Loading constellations...